[keps] orb08304.2l.amsat

Ray Hoad r.hoad at att.net
Thu Oct 30 19:34:35 PDT 2008


SB KEPS @ AMSAT  $ORB08304.N
2Line Orbital Elements 08304.AMSAT

HR AMSAT ORBITAL ELEMENTS FOR AMATEUR SATELLITES IN NASA FORMAT
FROM WA5QGD FORT WORTH,TX October 30, 2008
Send Subscribe/unsubscribe to KEPS at 
http://www.amsat.org/mailman/listinfo/keps
BID: ORB08304.N

DECODE 2-LINE ELSETS WITH THE FOLLOWING KEY:
1 AAAAAU 00  0  0 BBBBB.BBBBBBBB  .CCCCCCCC  00000-0  00000-0 0  DDDZ
2 AAAAA EEE.EEEE FFF.FFFF GGGGGGG HHH.HHHH III.IIII JJ.JJJJJJJJKKKKKZ
KEY: A-CATALOGNUM B-EPOCHTIME C-DECAY D-ELSETNUM E-INCLINATION F-RAAN
G-ECCENTRICITY H-ARGPERIGEE I-MNANOM J-MNMOTION K-ORBITNUM Z-CHECKSUM

TO ALL RADIO AMATEURS BT

AO-07
1 07530U 74089B   08303.60786392 -.00000027  00000-0  10000-3 0  3132
2 07530 101.4544 330.5475 0011898 000.2344 359.8730 12.53574431553826
AO-10
1 14129U 83058B   08303.67212325 -.00000139  00000-0  10000-3 0 05818
2 14129 026.0303 188.4643 5959656 169.1540 213.8113 02.05869109190872
UO-11
1 14781U 84021B   08303.48689190  .00000268  00000-0  42994-4 0 08004
2 14781 098.1403 339.4312 0009315 007.7529 352.3847 14.79673276323711
RS-15
1 23439U 94085A   08303.91383312 -.00000039  00000-0  10000-3 0 01620
2 23439 064.8160 277.1861 0145706 096.6638 265.0892 11.27552540570153
FO-29
1 24278U 96046B   08303.78870711 -.00000028  00000-0  92501-5 0  8937
2 24278 098.5772 202.4009 0350030 227.0182 130.1124 13.52939525602591
SO-33
1 25509U 98061B   08303.32558680  .00000053  00000-0 -91794-6 0  3120
2 25509 031.4303 277.8876 0354482 120.0718 243.5537 14.28229775522800
AO-40
1 26609U 00072B   08302.52735662 -.00000288  00000-0  10000-3 0  1457
2 26609 008.0153 052.3373 7938941 138.6704 321.8922 01.25586462 36718
VO-52
1 28650U 05017B   08303.33973754  .00000090  00000-0  17972-4 0   685
2 28650 097.7761 006.1607 0028249 064.2611 296.1562 14.81513318188468
PO-63
1 29712U 07001D   08304.21634562  .00000537  00000-0  77226-4 0  9255
2 29712 097.8608 359.7684 0013418 306.2918 053.7053 14.80315837 97446
AO-16
1 20439U 90005D   08303.52468610  .00000024  00000-0  24305-4 0  4515
2 20439 098.2482 276.8372 0011612 133.4263 226.7890 14.31806684980148
LO-19
1 20442U 90005G   08303.47988266  .00000025  00000-0  24226-4 0 03766
2 20442 098.2155 284.9068 0012537 131.0996 229.1285 14.32044208980293
AO-27
1 22825U 93061C   08303.89445017  .00000007  00000-0  19251-4 0 00967
2 22825 098.4035 258.9836 0007854 218.3807 141.6821 14.29250265787016
IO-26
1 22826U 93061D   08303.92502598  .00000019  00000-0  23969-4 0 08108
2 22826 098.3976 259.8637 0008295 216.3758 143.6888 14.29500302787118
GO-32
1 25397U 98043D   08303.60770379  .00000076  00000-0  51839-4 0  7343
2 25397 098.3507 332.0464 0001194 164.2653 195.8565 14.23150493535334
NO-44
1 26931U 01043C   08303.54634864 -.00000056  00000-0  10296-4 0 00145
2 26931 067.0521 298.5268 0007035 257.7514 102.2805 14.29537172369614
SO-50
1 27607U 02058C   08303.44558811 -.00000020  00000-0  19042-4 0 07358
2 27607 064.5612 005.8879 0085288 253.2542 105.9213 14.71389988314725
CO-55
1 27844U 03031E   08303.75216255  .00000063  00000-0  49674-4 0 04302
2 27844 098.7167 310.1630 0010773 087.4647 272.7758 14.20603569276541
CO-57
1 27848U 03031J   08303.55707943  .00000050  00000-0  43493-4 0 03828
2 27848 098.7187 309.0463 0010592 091.3827 268.8567 14.20410768276485
AO-51
1 28375U 04025K   08303.51448304  .00000011  00000-0  15721-4 0  2321
2 28375 098.0633 320.4861 0084675 104.6798 256.3804 14.40622295227740
CO-56
1 28941U 06005C   08304.08983522  .00030933  28761-5  19963-3 0  5069
2 28941 098.1206 074.0287 0143425 268.4280 090.0644 15.63537666151074
CP3
1 31128U 07012M   08303.71476206 -.00000048  00000-0  00000-0 0 04697
2 31128 098.0226 001.3545 0101706 278.9941 079.9762 14.51985592081454
CP4
1 31132U 07012Q   08303.72917007 -.00000175  00000-0 -27983-4 0  4473
2 31132 098.0281 004.1944 0084540 270.6935 088.4569 14.55151479 81512
CO-65
1 32785U 08021C   08303.39978999  .00000240  00000-0  37431-4 0 02095
2 32785 097.9788 002.8797 0016107 062.7167 297.5694 14.81407419027271
NOAA-10
1 16969U 86073A   08304.30522016  .00000073  00000-0  48075-4 0  3474
2 16969 098.7139 325.9567 0012665 144.2817 215.9213 14.27371865150715
NOAA-11
1 19531U 88089A   08304.30810578  .00000157  00000-0  10366-3 0  3771
2 19531 098.7957 031.7257 0012137 046.0431 314.1794 14.14880929 37019
NOAA-12
1 21263U 91032A   08304.59530174  .00000019  00000-0  26966-4 0  8899
2 21263 098.7725 306.5731 0013327 090.6496 269.6210 14.25551843907683
MET-3/5
1 21655U 91056A   08303.96269353  .00000051  00000-0  10000-3 0 05768
2 21655 082.5599 009.1616 0014426 040.8750 319.3451 13.17016835827326
MET-2/21
1 22782U 93055A   08303.71392954 -.00000107  00000-0 -10956-3 0 02893
2 22782 082.5520 004.8520 0020893 273.2281 086.6488 13.83631843765739
OKEAN-4
1 23317U 94066A   08303.63063181  .00000192  00000-0  20765-4 0 07346
2 23317 082.5414 189.6237 0023617 046.7252 313.5918 14.82646223758203
NOAA-14
1 23455U 94089A   08304.51276732 -.00000207  00000-0 -85521-4 0  3661
2 23455 098.9354 016.7464 0010291 119.9880 240.2313 14.13749933713477
NOAA-15
1 25338U 98030A   08304.54852311 -.00000025  00000-0  75984-5 0  6796
2 25338 098.5665 293.0488 0010867 012.6103 347.5329 14.24730127544075
RESURS
1 25394U 98043A   08303.72047135 -.00000012  00000-0  12853-4 0   572
2 25394 098.3704 341.4448 0001638 131.2886 228.8434 14.24173835535597
FENGYUN1
1 25730U 99025A   08303.95680434  .00000675  00000-0  42221-3 0 06208
2 25730 098.7357 275.2598 0020611 142.2543 218.0073 14.07831034487929
OKEAN-0
1 25860U 99039A   08303.90865633  .00000036  00000-0  12747-4 0 05119
2 25860 097.7636 288.5910 0000877 098.1547 261.9759 14.73541915499236
NOAA-16
1 26536U 00055A   08304.50366929 -.00000217  00000-0 -91929-4 0  1546
2 26536 099.1679 296.7278 0010196 202.2438 157.8287 14.12499882417877
NOAA-17
1 27453U 02032A   08304.52293975 -.00000069  00000-0 -11605-4 0  1531
2 27453 098.5198 005.1239 0012660 075.8852 284.3742 14.24012613330069
NOAA-18
1 28654U 05018A   08304.54604388  .00000150  00000-0  10761-3 0  6397
2 28654 098.8806 243.8792 0013573 293.4920 066.4826 14.11204104177565
HUBBLE
1 20580U 90037B   08303.90964857  .00000325  00000-0  12329-4 0 02631
2 20580 028.4685 164.5122 0003549 014.5435 345.5257 15.00422136815238
PO-34
1 25520U 98064B   08303.51652626  .00000320  00000-0  60119-5 0 01212
2 25520 028.4604 359.4173 0005177 303.9412 056.0690 15.17248645553589
ISS
1 25544U 98067A   08304.49799380  .00010423  00000-0  81653-4 0  5492
2 25544 051.6426 042.7042 0003582 279.9093 182.3738 15.72248135569822
CO-58
1 28895U 05043F   08303.61237191  .00000033  00000-0  16437-4 0 01575
2 28895 098.0814 194.3241 0017636 353.2460 006.8504 14.59708385160093
FALCON
1 30776U 07006E   08303.68818387  .00000365  00000-0  29569-4 0  4274
2 30776 035.4333 057.7190 0000864 024.2926 335.7831 15.03086916 90398
MAST
1 31126U 07012K   08303.20960784  .00000123  00000-0  38839-4 0 04494
2 31126 098.0227 002.1779 0093678 276.7039 082.3517 14.53453781081484
CAPE1
1 31130U 07012P   08303.70805306 -.00000070  00000-0 -49161-5 0  4418
2 31130 098.0244 001.3566 0101824 278.9416 080.0264 14.52001696 81240
COMPASS
1 32787U 08021E   08303.39227820  .00000216  00000-0  34372-4 0 01988
2 32787 097.9749 002.7919 0016947 063.7860 296.5099 14.81484487027276
AAUSAT2
1 32788U 08021F   08303.85139357 -.00000169  00000-0 -14644-4 0  1863
2 32788 097.9749 003.2719 0016627 064.0816 296.2088 14.81596156 27341
DO-64
1 32789U 08021G   08304.67579147  .00000502  00000-0  63904-4 0  1974
2 32789 097.9757 004.1402 0016709 059.6474 300.6893 14.81513594 27463
CO-66
1 32791U 08021J   08303.41007460  .00000379  00000-0  55290-4 0 01816
2 32791 097.9773 002.8321 0017333 060.8391 299.4556 14.81335073027246
RS-30
1 32953U 08025A   08303.74755498  .00000010  00000-0  00000-0 0 01465
2 32953 082.5045 039.9036 0018163 323.8421 036.1425 12.42997932019762
/EX






More information about the Keps mailing list